Sioux City, IA

6:50 PM CDT on June 22, 2017 (GMT -0500)
Sioux Gateway

Weather History for KSUX - September, 2013

Change the Weather History Date:

Saturday, September 14, 2013

  Actual Average Record
Temperature  
Mean Temperature 62 °F 64 °F  
Max Temperature 76 °F 77 °F 99 °F (1939)
Min Temperature 48 °F 51 °F 35 °F (2007)
Degree Days  
Heating Degree Days 3 4  
Month to date heating degree days 8 33  
Since 1 July heating degree days 28 48  
Cooling Degree Days 0 3  
Month to date cooling degree days 104 56  
Year to date cooling degree days 905 833  
Growing Degree Days 12 (Base 50)    
Moisture  
Dew Point 52 °F    
Average Humidity 70    
Maximum Humidity 93    
Minimum Humidity 46    
Precipitation  
Precipitation T in 0.09 in 1.59 in (2001)
Month to date precipitation 1.10 1.42  
Year to date precipitation 21.23 21.96  
Snow  
Snow 0.00 in 0.00 in 0.00 in ()
Month to date snowfall 0.0 0.0  
Since 1 July snowfall 0.0 0.0  
Since 1 September snowfall 0.0 0.0  
Snow Depth 0.00 in    
Sea Level Pressure  
Sea Level Pressure 29.97 in    
Wind  
Wind Speed 9 mph (SE)    
Max Wind Speed 20 mph    
Max Gust Speed 28 mph    
Visibility 10 miles    
Events      
T = Trace of Precipitation, MM = Missing Value Source: NWS Daily Summary

Daily Weather History Graph

Daily Weather History Graph

Search for Another Location

Airport or City:

Trip Planner

Search our weather history database for the weather conditions in past years. The results will help you decide how hot, cold, wet, or windy it might be!

Date:

Astronomy

Sep. 14, 2013 Rise Set
Actual Time 7:04 AM CDT 7:36 PM CDT
Civil Twilight 6:36 AM CDT 8:04 PM CDT
Nautical Twilight 6:03 AM CDT 8:37 PM CDT
Astronomical Twilight 5:28 AM CDT 9:12 PM CDT
Moon 4:23 PM CDT (9/14) 1:32 AM CDT (9/14)
Length of Visible Light 13h 28m
Length of Day
12h 31m
Waxing Gibbous, 72% of the Moon is Illuminated
Sep 14
Waxing Gibbous
Sep 19
Full
Sep 26
Last Quarter
Oct 4
New
Oct 11
First Quarter

Hourly Weather History & Observations

Time (CDT) Temp. Dew Point Humidity Pressure Visibility Wind Dir Wind Speed Gust Speed Precip Events Conditions
12:52 AM 53.1 °F 50.0 °F 89% 30.06 in 10.0 mi ESE 5.8 mph - N/A   Clear
1:52 AM 52.0 °F 48.9 °F 89% 30.06 in 10.0 mi ESE 6.9 mph - N/A   Clear
2:52 AM 50.0 °F 48.0 °F 93% 30.07 in 10.0 mi ESE 4.6 mph - N/A   Clear
3:52 AM 48.9 °F 46.9 °F 93% 30.06 in 10.0 mi ESE 6.9 mph - N/A   Clear
4:52 AM 48.0 °F 46.0 °F 93% 30.06 in 10.0 mi ESE 5.8 mph - N/A   Clear
5:52 AM 48.9 °F 46.9 °F 93% 30.05 in 10.0 mi ESE 6.9 mph - N/A   Clear
6:52 AM 52.0 °F 48.9 °F 89% 30.05 in 10.0 mi SE 6.9 mph - N/A   Clear
7:52 AM 53.1 °F 50.0 °F 89% 30.04 in 10.0 mi SE 6.9 mph - N/A   Overcast
8:52 AM 55.9 °F 51.1 °F 84% 30.05 in 10.0 mi SE 6.9 mph - N/A   Scattered Clouds
9:52 AM 60.1 °F 52.0 °F 75% 30.04 in 10.0 mi SSE 9.2 mph - N/A   Overcast
10:52 AM 63.0 °F 53.1 °F 70% 30.02 in 10.0 mi SSE 8.1 mph - N/A   Overcast
11:52 AM 66.9 °F 52.0 °F 59% 30.00 in 10.0 mi South 12.7 mph 19.6 mph N/A   Partly Cloudy
12:52 PM 69.1 °F 52.0 °F 54% 29.98 in 10.0 mi South 13.8 mph 21.9 mph N/A   Mostly Cloudy
1:52 PM 75.0 °F 53.1 °F 46% 29.94 in 10.0 mi South 13.8 mph 24.2 mph N/A   Mostly Cloudy
2:52 PM 75.0 °F 53.1 °F 46% 29.92 in 10.0 mi South 17.3 mph 25.3 mph N/A   Mostly Cloudy
3:52 PM 73.0 °F 55.0 °F 53% 29.91 in 10.0 mi South 9.2 mph - 0.00 in   Overcast
4:52 PM 73.0 °F 54.0 °F 51% 29.88 in 10.0 mi South 13.8 mph - N/A   Overcast
5:52 PM 71.1 °F 54.0 °F 55% 29.86 in 10.0 mi South 11.5 mph - N/A   Mostly Cloudy
6:52 PM 71.1 °F 55.0 °F 57% 29.85 in 10.0 mi South 11.5 mph - 0.00 in   Clear
7:52 PM 68.0 °F 57.9 °F 70% 29.84 in 10.0 mi SE 6.9 mph - N/A   Scattered Clouds
8:52 PM 66.0 °F 57.9 °F 75% 29.85 in 10.0 mi SE 5.8 mph - N/A   Overcast
9:52 PM 64.9 °F 57.9 °F 78% 29.85 in 10.0 mi SSE 6.9 mph - N/A   Overcast
10:52 PM 66.0 °F 57.9 °F 75% 29.84 in 10.0 mi SSE 5.8 mph - N/A   Overcast
11:52 PM 64.9 °F 57.0 °F 75% 29.84 in 10.0 mi ESE 3.5 mph - N/A   Mostly Cloudy